When you browse on this site, cookies collect data to enhance your experience and personalize the content and advertising you see.
Visit our Privacy Policy to learn more. By continuing to use the site, you agree to this use of cookies and data.
  • In Romania
  • List of Countries
  • For 7 days
  • Water Temperature
  • Satellite Maps
  • Weather Map
  • Weather Widgets
  • user-avatar
    Login

    Hourly Weather Ballycastle

    Today, 20 January, Sunday

    Time Temperature Precipitation Wind Pressure Humidity
    00:00 +3°C° 0 mm 2 mps 755 mmHg 95%
    01:00 +2°C° 0 mm 3 mps 755 mmHg 95%
    02:00 +2°C° 0 mm 3 mps 755 mmHg 95%
    03:00 +2°C° 0 mm 3 mps 756 mmHg 96%
    04:00 +2°C° 0.1 mm 3 mps 756 mmHg 95%
    05:00 +3°C° 0.1 mm 3 mps 757 mmHg 95%
    06:00 +1°C° 0 mm 4 mps 757 mmHg 93%
    07:00 +2°C° 0.5 mm 5 mps 758 mmHg 93%
    08:00 +3°C° 0.5 mm 6 mps 759 mmHg 94%
    09:00 +4°C° 0.5 mm 8 mps 760 mmHg 94%
    10:00 +4°C° 0 mm 8 mps 760 mmHg 89%
    11:00 +3°C° 0 mm 9 mps 761 mmHg 84%
    12:00 +3°C° 0 mm 9 mps 762 mmHg 80%
    13:00 +3°C° 0 mm 9 mps 762 mmHg 78%
    14:00 +4°C° 0 mm 8 mps 763 mmHg 77%
    15:00 +4°C° 0 mm 8 mps 763 mmHg 75%
    16:00 +3°C° 0 mm 7 mps 764 mmHg 76%
    17:00 +2°C° 0 mm 6 mps 764 mmHg 76%
    18:00 +2°C° 0 mm 5 mps 765 mmHg 77%
    19:00 +2°C° 0 mm 5 mps 765 mmHg 77%
    20:00 +1°C° 0 mm 4 mps 765 mmHg 78%
    21:00 +2°C° 0 mm 3 mps 765 mmHg 78%
    22:00 +2°C° 0 mm 3 mps 765 mmHg 80%
    23:00 +2°C° 0 mm 3 mps 765 mmHg 83%

    Tomorrow, 21 January, Monday

    Time Temperature Precipitation Wind Pressure Humidity
    00:00 +1°C° 0 mm 3 mps 765 mmHg 85%
    01:00 0°C° 0 mm 4 mps 765 mmHg 86%
    02:00 0°C° 0 mm 4 mps 764 mmHg 87%
    03:00 -1°C° 0 mm 5 mps 764 mmHg 88%
    04:00 0°C° 0 mm 5 mps 763 mmHg 86%
    05:00 -1°C° 0 mm 6 mps 763 mmHg 85%
    06:00 -1°C° 0 mm 6 mps 762 mmHg 83%
    07:00 -1°C° 0 mm 7 mps 761 mmHg 83%
    08:00 -1°C° 0 mm 8 mps 760 mmHg 83%
    09:00 -1°C° 0 mm 8 mps 760 mmHg 82%
    10:00 0°C° 0 mm 9 mps 758 mmHg 79%
    11:00 0°C° 0 mm 10 mps 756 mmHg 77%
    12:00 +1°C° 0 mm 11 mps 755 mmHg 74%
    13:00 +1°C° 0.5 mm 11 mps 753 mmHg 78%
    14:00 0°C° 0.5 mm 12 mps 752 mmHg 81%
    15:00 +2°C° 0.5 mm 12 mps 750 mmHg 85%
    16:00 +1°C° 1.2 mm 11 mps 750 mmHg 85%
    17:00 +1°C° 1.2 mm 10 mps 749 mmHg 84%
    18:00 0°C° 1.2 mm 8 mps 748 mmHg 84%
    19:00 0°C° 0.1 mm 8 mps 748 mmHg 85%
    20:00 -1°C° 0.1 mm 8 mps 747 mmHg 86%
    21:00 -1°C° 0.1 mm 8 mps 747 mmHg 88%
    22:00 -1°C° 0.3 mm 8 mps 747 mmHg 86%
    23:00 -1°C° 0.3 mm 8 mps 747 mmHg 85%

    Day after tomorrow, 22 January, Tuesday

    Time Temperature Precipitation Wind Pressure Humidity
    00:00 -1°C° 0.3 mm 8 mps 747 mmHg 83%
    01:00 -1°C° 0.4 mm 9 mps 747 mmHg 83%
    02:00 -1°C° 0.4 mm 9 mps 746 mmHg 83%
    03:00 -3°C° 0.4 mm 9 mps 746 mmHg 84%
    04:00 -3°C° 0.2 mm 9 mps 746 mmHg 82%
    05:00 -3°C° 0.2 mm 10 mps 746 mmHg 81%
    06:00 -3°C° 0.2 mm 10 mps 746 mmHg 79%
    07:00 -3°C° 0.2 mm 10 mps 746 mmHg 79%
    08:00 -3°C° 0.2 mm 9 mps 746 mmHg 79%
    09:00 -4°C° 0.2 mm 9 mps 746 mmHg 79%
    10:00 -3°C° 0.2 mm 9 mps 746 mmHg 77%
    11:00 -1°C° 0.2 mm 9 mps 746 mmHg 76%
    12:00 -1°C° 0.2 mm 8 mps 747 mmHg 74%
    13:00 -1°C° 0.2 mm 8 mps 746 mmHg 74%
    14:00 -1°C° 0.2 mm 8 mps 746 mmHg 75%
    15:00 -1°C° 0.2 mm 8 mps 746 mmHg 76%
    16:00 -1°C° 0.2 mm 8 mps 746 mmHg 77%
    17:00 -1°C° 0.2 mm 8 mps 747 mmHg 78%
    18:00 -2°C° 0.2 mm 8 mps 747 mmHg 79%
    19:00 -2°C° 0.2 mm 8 mps 747 mmHg 80%
    20:00 -2°C° 0.2 mm 7 mps 747 mmHg 80%
    21:00 -2°C° 0.2 mm 7 mps 748 mmHg 81%
    22:00 -2°C° 0.3 mm 7 mps 748 mmHg 81%
    23:00 -2°C° 0.3 mm 7 mps 748 mmHg 81%

    23 January, Wednesday

    Time Temperature Precipitation Wind Pressure Humidity
    00:00 -2°C° 0.3 mm 7 mps 749 mmHg 81%
    01:00 -1°C° 0.2 mm 7 mps 749 mmHg 81%
    02:00 -1°C° 0.2 mm 7 mps 749 mmHg 81%
    03:00 -1°C° 0.2 mm 6 mps 749 mmHg 82%
    04:00 -1°C° 0.1 mm 6 mps 749 mmHg 81%
    05:00 -1°C° 0.1 mm 6 mps 750 mmHg 81%
    06:00 0°C° 0.1 mm 5 mps 750 mmHg 81%
    07:00 0°C° 0.1 mm 5 mps 750 mmHg 82%
    08:00 0°C° 0.1 mm 5 mps 751 mmHg 83%
    09:00 0°C° 0.1 mm 5 mps 751 mmHg 84%
    10:00 +1°C° 0 mm 5 mps 752 mmHg 84%
    11:00 +1°C° 0 mm 5 mps 752 mmHg 85%
    12:00 +2°C° 0 mm 5 mps 752 mmHg 85%
    13:00 +2°C° 0 mm 5 mps 752 mmHg 86%
    14:00 +2°C° 0 mm 5 mps 752 mmHg 87%
    15:00 +2°C° 0 mm 5 mps 752 mmHg 89%
    16:00 +2°C° 0 mm 5 mps 752 mmHg 90%
    17:00 +1°C° 0 mm 5 mps 752 mmHg 91%
    18:00 +1°C° 0 mm 4 mps 752 mmHg 93%
    19:00 +1°C° 0.2 mm 5 mps 752 mmHg 94%
    20:00 +2°C° 0.2 mm 5 mps 753 mmHg 94%
    21:00 +2°C° 0.2 mm 6 mps 753 mmHg 95%
    22:00 +2°C° 0.2 mm 6 mps 752 mmHg 96%
    23:00 +2°C° 0.2 mm 6 mps 752 mmHg 96%

    24 January, Thursday

    Time Temperature Precipitation Wind Pressure Humidity
    00:00 +3°C° 0.2 mm 6 mps 752 mmHg 97%
    01:00 +4°C° 0.1 mm 7 mps 752 mmHg 97%
    02:00 +5°C° 0.1 mm 7 mps 752 mmHg 97%
    03:00 +6°C° 0.1 mm 8 mps 752 mmHg 97%
    04:00 +6°C° 0.2 mm 8 mps 752 mmHg 97%
    05:00 +6°C° 0.2 mm 7 mps 752 mmHg 97%
    06:00 +6°C° 0.2 mm 7 mps 752 mmHg 97%
    07:00 +6°C° 0.6 mm 7 mps 752 mmHg 97%
    08:00 +6°C° 0.6 mm 7 mps 753 mmHg 97%
    09:00 +7°C° 0.6 mm 8 mps 753 mmHg 97%
    10:00 +7°C° 0.1 mm 9 mps 753 mmHg 96%
    11:00 +7°C° 0.1 mm 9 mps 754 mmHg 95%
    12:00 +8°C° 0.1 mm 10 mps 754 mmHg 94%
    13:00 +8°C° 0 mm 10 mps 754 mmHg 94%
    14:00 +8°C° 0 mm 10 mps 754 mmHg 93%
    15:00 +8°C° 0 mm 10 mps 754 mmHg 93%
    16:00 +8°C° 0.1 mm 9 mps 755 mmHg 94%
    17:00 +7°C° 0.1 mm 9 mps 755 mmHg 94%
    18:00 +7°C° 0.1 mm 9 mps 755 mmHg 95%
    19:00 +7°C° 0.1 mm 8 mps 756 mmHg 95%
    20:00 +7°C° 0.1 mm 8 mps 756 mmHg 95%
    21:00 +9°C° 0.1 mm 8 mps 756 mmHg 95%
    22:00 +9°C° 0.1 mm 8 mps 756 mmHg 94%
    23:00 +9°C° 0.1 mm 8 mps 756 mmHg 94%

    25 January, Friday

    Time Temperature Precipitation Wind Pressure Humidity
    00:00 +9°C° 0.1 mm 8 mps 756 mmHg 94%
    01:00 +7°C° 0 mm 8 mps 756 mmHg 93%
    02:00 +8°C° 0 mm 7 mps 756 mmHg 93%
    03:00 +8°C° 0 mm 7 mps 756 mmHg 92%
    04:00 +6°C° 0 mm 7 mps 756 mmHg 93%
    05:00 +6°C° 0 mm 8 mps 756 mmHg 93%
    06:00 +6°C° 0 mm 8 mps 756 mmHg 93%
    07:00 +6°C° 0 mm 8 mps 755 mmHg 93%
    08:00 +7°C° 0 mm 9 mps 755 mmHg 93%
    09:00 +7°C° 0 mm 9 mps 755 mmHg 92%
    10:00 +7°C° 0.1 mm 9 mps 755 mmHg 92%
    11:00 +9°C° 0.1 mm 8 mps 755 mmHg 92%
    12:00 +9°C° 0.1 mm 8 mps 755 mmHg 91%
    13:00 +9°C° 0.4 mm 8 mps 754 mmHg 92%
    14:00 +7°C° 0.4 mm 8 mps 754 mmHg 93%
    15:00 +7°C° 0.4 mm 8 mps 754 mmHg 94%
    16:00 +6°C° 0.2 mm 7 mps 754 mmHg 93%
    17:00 +6°C° 0.2 mm 7 mps 754 mmHg 92%
    18:00 +5°C° 0.2 mm 6 mps 753 mmHg 91%
    19:00 +5°C° 0.3 mm 6 mps 753 mmHg 92%
    20:00 +4°C° 0.3 mm 6 mps 753 mmHg 92%
    21:00 +5°C° 0.3 mm 5 mps 752 mmHg 93%
    22:00 +4°C° 1.2 mm 6 mps 751 mmHg 93%
    23:00 +4°C° 1.2 mm 6 mps 751 mmHg 92%
    Show more